SL-14 DEB, 45266

Orbit data source: Space-Track

SL-14 DEB, 45266 is space debris in LEO originally from a launch on Thu, 15 Aug 1991 UTC launched from the Plesetsk Missile And Space Complex (PKMTR). Debris objects in space refer to the collection of defunct objects orbiting the Earth. Examples of debris include non-operational satellites, rocket bodies, and fragments generated from explosions, collisions, or faulty payload assembly.

Loading next visibility...
Identifier
45266, 1991-056C
Orbit
LEO
Country
Flag of CISCIS
Related business
Manufacturer
Unknown
Mission
Spacecraft
Bus & Motor
Unknown
Mass
Unknown
Launch date (UTC)
1991-08-15 (35 years ago)
Launch vehicle
Unknown
Launch site
Plesetsk Missile And Space Complex (PKMTR)
Object type
Payload
Rocket body
Debris
Shape & HBR
Unknown shape, 0.5 m
Radar Cross Section
Medium (>0.1 m² and <1 m²)

Expand to show TLE details & history
Last TLE update: 12 hours ago

TLE from 12 hours ago
0 SL-14 DEB
1 45266U 91056C   26257.46314202  .00000036  00000-0  59483-4 0  9990
2 45266  82.5484  72.5745 0004671 173.9722 186.1458 13.18021993316881
Epoch: 2026-09-14T11:06Z
TLE epoch observation values (Epoch: 2026-09-14T11:06:55.470Z)
Latitude
-0.00002°
Longitude
-87.59971°
Altitude
1,198.61 km
Speed
7.253 km/s
True Right ascension
04h 50m 17s
True Declination
0° 00' 00"
Sunlit
Object was in daylight at epoch
Visualization orbit readout
Latitude
Unknown
Longitude
Unknown
Altitude
Unknown
Speed
Unknown
Apparent Right ascension
Unknown
Apparent Declination
Unknown
Sunlit
N/A
Visualization observer readout
Local Sidereal Time
15:17:04
Azimuth
Unknown
Elevation
Unknown
Doppler factor
Unknown
Orbital elements
Apogee altitude
1,193.063 km
Perigee altitude
1,185.993 km
Semi-major axis
7,567.665 km
Eccentricity
0.00047
Inclination
82.5484°
RAAN
72.5745°
Arg. of periapsis
173.9722°
True anomaly
186.14007°
Mean anomaly
186.1458°
Eccentric anomaly
186.14294°
Mean motion
3.29686 °/min
Orbital period
109.19 mins
BSTAR
0.000059483
Loading maneuver chart data...
Computing Atmospheric mass density...
Loading historical data...
Loading historical data...
Loading historical data...
Loading historical data...
Loading historical data...
Loading historical data...
Loading historical data...

Documentation

Showing up to 5 results
|